Tracking 20719 objects as of 25-May-2020
HD Live streaming from Space Station
objects crossing your sky now

IRIDIUM 33 DEB

Track IRIDIUM 33 DEB now!
10-day predictions


NORAD ID: 38234
Int'l Code: 1997-051ZJ
Perigee: 618.3 km
Apogee: 742.3 km
Inclination: 86.4 °
Period: 98.2 minutes
Semi major axis: 7051 km
RCS: 0.0003 m2 (small)
Launch date: September 14, 1997
Source: United States (US)
Launch site: TYURATAM MISSILE AND SPACE COMPLEX (TTMTR)

Note: This is SATELLITE DEBRIS
aabbcc
Your satellite tracking list
Your tracking list is empty




NASA's NSSDC Master Catalog

Two Line Element Set (TLE):
1 38234U 97051ZJ  20142.89870623  .00002740  00000-0  46540-3 0  9999
2 38234  86.4459 206.8615 0087924  85.3486 275.7763 14.66225085552176
Source of the keplerian elements: AFSPC